Location: Unspecified
(0.0000°N, 0.0000°E)
Time: 12:00:11
(UTC+00:00)

S-56A Canister/Altair - Pass Details

Date: 18 December 2018
Orbit: 633 x 2500 km, 38.9° (Epoch: 25 March)

Event Time Altitude Azimuth Distance (km) Brightness Sun altitude
Rises 22:51:11 0° 243° (WSW) 2,983 - -61.7°
Reaches altitude 10° 22:53:22 10° 250° (WSW) 2,154 - -62.0°
Maximum altitude 22:58:02 45° 322° (NW) 1,114 - -62.6°
Drops below altitude 10° 23:04:20 10° 34° (NE) 2,910 - -63.4°
Sets 23:07:46 0° 40° (NE) 4,169 - -63.7°
